Home   Weather   Cúcuta   Past weeks

Flag for Colombia Past Weather in Cúcuta, Colombia — Yesterday and Last 2 Weeks

Now
73 °F

Broken clouds.


Feels Like: 72 °F
Forecast: 63 / 92 °F
Wind: 2 mph from North

Location: Cucuta / Camilo Daza

Current Time: Jan 21, 2017 at 10:31:46 am

Latest Report: Jan 21, 2017 at 9:00 am


Visibility: 2 mi

Pressure: 30.06 "Hg

Humidity: 89%

Dew Point: 70 °F

Location of CúcutaLocation

Past Weather in Cúcuta — Graph

°F

Cúcuta Temperature Yesterday

Maximum temperature yesterday: 84 °F (at 1:00 pm)
Minimum temperature yesterday: 72 °F (at 5:00 am)
Average temperature yesterday: 78 °F

High & Low Weather Summary for the Past Weeks

 TemperatureHumidityPressure
High88 °F (Jan 6, 10:00 am)100% (Jan 9, 7:00 am)32.99 "Hg (Jan 9, 7:00 am)
Low66 °F (Jan 16, 5:00 am)49% (Jan 6, 10:00 am)29.82 "Hg (Jan 6, 3:00 pm)
Average76 °F80%29.96 "Hg
* Reported Jan 6 9:00 am — Jan 21 9:00 am, Cúcuta, Weather by CustomWeather, © 2017

Note: Actual official high and low records may vary slightly from our data, if they occured in-between our weather recording intervals... More about our weather records

Advertising

Cúcuta Weather History for the Previous 24 Hours

Scroll right to see more
 ConditionsComfort  
Time TempWeatherWind HumidityBarometerVisibility
9:00 am
Sat, Jan 21
73 °FBroken clouds.2 mph89%30.06 "Hg2 mi
8:00 am72 °FFog.5 mph94%30.04 "Hg1 mi
7:00 am72 °FFog.5 mph94%30.01 "Hg1 mi
6:00 am72 °FDrizzle. Fog.8 mph94%29.98 "Hg1 mi
5:30 am72 °FDrizzle. Fog.9 mph94%29.97 "Hg1 mi
5:00 am72 °FFog.No wind100%29.96 "Hg1 mi
12:00 am75 °FPassing clouds.No wind78%29.98 "HgN/A
11:00 pm
Fri, Jan 20
75 °FPassing clouds.No wind83%29.98 "HgN/A
10:00 pm77 °FPassing clouds.2 mph79%29.97 "HgN/A
9:00 pm77 °FPassing clouds.2 mph79%29.96 "HgN/A
8:00 pm79 °FPassing clouds.2 mph74%29.93 "HgN/A
7:00 pm79 °FPassing clouds.3 mph74%29.91 "HgN/A
6:00 pm81 °FPassing clouds.6 mph70%29.89 "HgN/A
5:00 pm82 °FScattered clouds.9 mph66%29.88 "HgN/A
4:00 pm82 °FScattered clouds.9 mph66%29.87 "HgN/A
3:00 pm84 °FScattered clouds.12 mph58%29.87 "HgN/A
2:00 pm84 °FScattered clouds.9 mph62%29.89 "HgN/A
1:00 pm84 °FScattered clouds.9 mph62%29.91 "HgN/A
12:00 pm82 °FScattered clouds.9 mph66%29.95 "HgN/A
11:00 am81 °FFog.5 mph70%29.98 "Hg5 mi
10:00 am77 °FFog.5 mph83%30.01 "Hg5 mi
Weather by CustomWeather, © 2017

See weather overviewHow to use our weather pages